Home   Weather   Denmark   Skive   Past weeks
Flag for Denmark

Past Weather in Skive, Denmark — Yesterday and Last 2 Weeks

Currently: 46 °F. Drizzle. Low clouds. (Weather station: Karup, Denmark). See more current weather

Past Weather in Skive — Graph

°F

Skive Temperature Yesterday

Maximum temperature yesterday: 52 °F (at 1:50 pm)
Minimum temperature yesterday: 41 °F (at 3:50 am)
Average temperature yesterday: 46 °F

High & Low Weather Summary for the Past Weeks

 TemperatureHumidityPressure
High61 °F (Oct 3, 9:20 am)100% (Oct 3, 10:20 am)30.57 "Hg (Oct 3, 10:20 am)
Low36 °F (Oct 13, 12:20 am)50% (Oct 12, 2:50 pm)29.33 "Hg (Oct 3, 6:20 am)
Average50 °F86%30.03 "Hg
* Reported Oct 3 6:20 am — Oct 18 6:20 am, Skive. Weather by CustomWeather, © 2021

Note: Actual official high and low records may vary slightly from our data, if they occured in-between our weather recording intervals... More about our weather records

Skive Weather History for the Previous 24 Hours

Scroll right to see more
 ConditionsComfort  
Time TempWeatherWind HumidityBarometerVisibility
6:20 am
Mon, Oct 18
46 °FLight rain. Low clouds.8 mph100%30.07 "Hg2 mi
5:51 am46 °FDrizzle. Overcast.8 mph100%30.07 "Hg3 mi
5:36 am46 °FDrizzle. Low clouds.7 mph100%30.07 "Hg4 mi
5:20 am46 °FDrizzle. Low clouds.7 mph100%30.07 "Hg4 mi
4:51 am46 °FLight rain. Fog.7 mph100%30.07 "Hg3 mi
4:31 am46 °FLight rain. Mostly cloudy.6 mph100%30.07 "Hg4 mi
4:20 am46 °FLight rain. Overcast.7 mph100%30.07 "Hg6 mi
3:52 am46 °FLight rain. Overcast.6 mph100%30.07 "Hg4 mi
3:20 am46 °FLight rain. Overcast.6 mph100%30.07 "HgN/A
2:50 am46 °FOvercast.5 mph100%30.07 "HgN/A
2:20 am46 °FOvercast.3 mph100%30.07 "HgN/A
1:50 am46 °FDrizzle. Overcast.5 mph93%30.07 "Hg6 mi
1:20 am46 °FOvercast.3 mph93%30.07 "HgN/A
12:50 am46 °FPassing clouds.2 mph93%30.07 "HgN/A
12:20 am46 °FPassing clouds.2 mph93%30.07 "HgN/A
11:50 pm
Sun, Oct 17
46 °FPartly cloudy.3 mph93%30.07 "HgN/A
11:20 pm46 °FPartly cloudy.3 mph93%30.07 "HgN/A
10:50 pm46 °FPassing clouds.2 mph93%30.07 "HgN/A
10:20 pm46 °FPassing clouds.2 mph93%30.07 "HgN/A
9:50 pm46 °FPassing clouds.2 mph93%30.07 "HgN/A
9:20 pm46 °FPassing clouds.3 mph93%30.04 "HgN/A
8:50 pm48 °FOvercast.2 mph87%30.04 "HgN/A
8:20 pm48 °FPassing clouds.2 mph94%30.04 "HgN/A
7:50 pm48 °FPassing clouds.1 mph87%30.04 "HgN/A
7:20 pm48 °FPartly cloudy.1 mph87%30.04 "HgN/A
6:50 pm48 °FPassing clouds.3 mph87%30.04 "HgN/A
6:20 pm48 °FOvercast.5 mph87%30.04 "HgN/A
5:50 pm50 °FOvercast.2 mph88%30.01 "HgN/A
5:20 pm50 °FOvercast.6 mph82%30.01 "HgN/A
4:50 pm50 °FPartly sunny.2 mph82%30.01 "HgN/A
4:20 pm50 °FPartly sunny.3 mph82%30.01 "HgN/A
3:50 pm50 °FPartly sunny.5 mph82%30.01 "HgN/A
3:20 pm50 °FOvercast.7 mph82%30.01 "HgN/A
2:50 pm52 °FOvercast.6 mph77%30.01 "HgN/A
2:20 pm52 °FPartly sunny.6 mph77%30.01 "HgN/A
1:50 pm52 °FPartly sunny.7 mph77%30.01 "HgN/A
1:20 pm50 °FPartly sunny.6 mph82%30.01 "HgN/A
12:50 pm50 °FPartly sunny.8 mph82%30.01 "HgN/A
12:20 pm50 °FPartly sunny.5 mph82%30.01 "HgN/A
11:50 am50 °FPartly sunny.6 mph82%30.01 "HgN/A
11:20 am48 °FPartly sunny.6 mph87%30.01 "HgN/A
10:50 am48 °FPartly sunny.6 mph87%29.98 "HgN/A
10:20 am46 °FBroken clouds.6 mph87%29.98 "HgN/A
9:50 am46 °FPartly sunny.5 mph87%29.98 "HgN/A
9:20 am45 °FBroken clouds.2 mph93%29.98 "HgN/A
8:50 am43 °FBroken clouds.5 mph93%29.98 "HgN/A
8:20 am43 °FPartly sunny.5 mph93%29.98 "HgN/A
7:50 am41 °FPassing clouds.5 mph93%29.95 "HgN/A
7:20 am43 °FPartly cloudy.5 mph93%29.95 "HgN/A
Weather by CustomWeather, © 2021

See weather overview